Wind_Speed
27 27 29 32 33 32 33 37 38 38 39 39 39 40 41 41 41 41 41 43 45 46 47 48 47 48 49 49 49 49 50 51 51 51 51 51 51 51 51 50 49 49 49 48 48 47 46 44 44 44 43 43 43 43 44 45 46 46 46 46 45 44 42
27 27 28 30 32 32 34 38 40 39 40 40 40 41 42 42 43 43 43 44 46 48 49 50 50 50 51 51 51 51 52 53 52 52 52 52 52 52 51 51 50 50 49 49 48 47 46 45 45 44 44 44 44 45 47 48 48 49 49 49 48 47 45
29 29 31 31 31 32 34 38 41 41 41 41 41 42 43 44 44 45 45 46 48 49 51 52 52 52 53 52 52 53 54 54 53 53 53 52 52 52 52 52 52 51 50 49 48 48 47 46 45 45 45 46 46 48 49 50 51 51 51 51 51 50 48
31 32 33 33 34 34 35 39 42 42 42 43 43 44 44 45 46 46 47 48 49 51 52 53 54 54 54 54 54 55 56 55 54 54 54 54 53 53 53 53 53 52 52 51 49 49 48 47 47 46 47 47 49 50 52 53 53 54 54 53 53 52 50
33 34 34 35 35 36 36 40 44 43 44 44 45 45 46 47 48 49 49 50 51 52 53 55 56 56 56 56 56 57 57 57 56 56 55 55 54 54 54 53 54 54 53 52 51 50 49 49 48 48 48 49 50 52 53 55 56 56 56 56 55 53 52
35 36 36 36 37 37 37 41 45 45 45 46 47 47 48 49 50 50 51 52 53 54 55 56 58 59 59 58 58 58 59 59 58 57 57 56 56 55 55 55 55 55 54 54 53 51 50 50 50 50 50 51 52 53 55 57 58 59 59 58 57 55 53
38 38 38 38 39 38 38 43 48 47 47 48 49 49 50 50 52 52 53 54 55 55 56 58 60 61 61 60 61 60 60 60 60 59 59 58 57 56 56 56 56 55 55 54 54 53 52 51 52 52 52 52 54 56 57 59 60 61 61 60 59 57 55
41 41 40 40 41 40 40 45 50 49 49 50 51 51 52 52 53 54 55 56 56 57 58 59 62 64 64 63 62 62 62 62 62 61 60 59 58 57 57 56 57 56 56 55 55 54 54 53 53 54 54 55 56 58 60 61 62 62 62 62 61 59 57
43 43 43 42 42 41 42 48 52 51 51 52 53 54 54 54 55 56 56 57 58 59 60 61 63 65 66 65 64 64 64 64 64 63 61 60 59 58 57 57 57 57 56 56 56 55 55 55 55 55 56 57 58 60 62 63 63 63 63 62 62 61 60
46 46 46 44 44 43 44 49 52 53 53 53 54 55 55 56 57 57 57 59 60 60 62 63 65 65 66 67 66 66 66 66 65 64 63 61 60 59 59 58 57 56 57 57 57 57 57 57 56 57 58 59 61 62 65 66 65 65 64 63 63 63 62
48 49 49 48 48 47 47 50 53 53 54 55 56 56 57 57 58 59 60 61 62 62 63 65 66 67 67 68 68 68 67 67 66 65 64 63 61 60 60 59 58 57 57 58 58 59 59 59 58 58 59 61 62 64 66 68 68 67 66 65 64 64 63
50 51 51 51 51 51 51 53 54 55 55 57 58 58 59 59 60 61 62 61 63 65 65 66 68 68 69 70 69 69 69 68 68 66 65 64 63 62 61 61 59 58 58 58 58 60 60 61 61 60 61 62 64 65 66 68 70 70 70 68 66 66 65
52 52 53 53 54 54 55 56 56 57 57 58 60 60 61 61 62 63 61 60 64 67 67 68 70 70 71 72 71 71 70 69 69 68 67 65 64 63 62 62 61 60 60 59 59 60 60 61 62 62 62 63 65 66 67 68 70 71 71 70 68 67 66
53 54 55 56 56 57 57 58 59 59 60 61 62 62 63 64 64 66 65 63 66 69 69 70 71 72 73 74 73 73 72 71 70 69 68 66 65 64 63 63 62 62 61 61 61 61 61 62 63 63 64 65 66 67 68 69 70 72 72 70 69 68 66
54 55 56 57 58 58 59 60 61 61 62 62 63 64 65 66 67 69 66 65 68 71 71 72 73 74 75 76 76 75 74 73 72 70 69 68 67 66 64 64 63 62 62 61 61 61 62 62 63 64 65 66 67 68 69 70 72 73 73 72 70 67 64
56 57 58 59 59 60 60 61 62 63 64 64 65 66 67 68 69 68 65 67 71 73 73 74 75 76 77 77 77 77 75 74 73 72 71 70 68 67 66 65 64 63 62 61 61 61 62 62 63 64 65 67 68 69 69 70 73 74 73 72 70 66 62
58 59 60 61 61 62 63 64 64 65 65 66 66 68 68 69 69 68 68 71 74 74 75 76 77 77 78 79 79 78 77 76 74 73 73 71 70 68 67 66 65 63 62 61 61 62 62 63 64 65 66 68 69 69 70 71 73 74 72 70 68 64 59
61 62 62 63 64 64 65 66 66 67 67 68 68 69 70 71 71 71 72 74 75 75 76 77 78 79 79 80 80 79 78 77 76 75 74 73 71 69 67 66 64 63 62 62 63 63 63 64 65 66 68 69 70 71 72 73 74 74 72 69 66 62 57
63 64 65 65 66 66 67 68 69 69 69 69 71 71 72 73 73 74 75 75 76 77 77 78 79 80 80 81 81 80 79 78 76 76 75 74 72 70 67 65 64 62 62 63 64 64 64 65 66 68 70 70 72 73 74 75 75 74 71 68 64 59 54
64 65 66 67 68 68 69 70 70 70 71 72 73 74 75 75 76 76 77 78 78 79 79 79 80 81 82 82 82 81 80 78 77 77 77 75 73 70 67 65 64 63 63 63 64 64 65 66 68 70 71 72 74 76 76 76 76 74 71 67 62 57 52
66 67 68 68 69 70 71 71 71 72 73 75 76 76 77 78 79 79 80 80 81 81 81 82 82 83 83 84 83 82 80 78 78 78 77 75 72 69 66 65 64 64 64 64 64 65 66 68 69 70 71 73 76 78 78 78 76 74 70 66 60 55 49
68 69 70 70 71 72 73 73 74 75 76 77 78 79 80 80 81 82 83 83 83 83 84 84 84 85 85 85 84 83 80 79 78 78 77 74 71 69 67 65 65 64 65 65 65 66 68 69 70 71 72 75 77 79 81 81 78 73 69 64 58 52 47
69 70 72 72 73 74 74 75 76 77 78 79 80 81 81 82 83 84 85 85 86 86 86 86 86 86 86 86 86 84 81 79 78 78 76 74 71 68 67 66 65 66 67 67 67 68 70 70 70 71 74 77 79 80 81 81 79 75 69 63 56 50 45
70 72 73 74 75 75 76 77 78 78 79 80 81 82 83 84 84 86 87 87 88 88 88 88 88 87 88 88 87 85 82 79 78 77 75 73 70 67 66 66 67 67 68 69 69 70 71 70 71 73 76 79 82 83 81 79 78 75 69 63 56 49 44
72 73 75 75 76 77 78 78 79 80 80 81 82 83 84 85 86 87 88 90 90 90 90 90 89 89 89 88 87 86 84 81 78 76 73 71 68 67 66 67 69 69 69 70 71 71 70 71 73 77 79 81 83 83 80 77 76 74 69 62 56 49 43
75 76 77 77 78 78 79 79 80 81 82 83 84 85 86 87 88 89 90 91 92 92 92 91 91 91 90 88 87 87 84 81 78 74 71 70 68 66 66 67 70 70 71 72 73 71 70 73 77 80 81 82 82 80 78 77 75 73 68 61 55 49 42
77 78 79 79 79 79 80 81 81 82 83 84 86 86 87 88 90 91 92 92 93 93 93 93 92 92 91 89 87 86 83 80 75 70 69 68 66 65 66 68 70 71 72 74 74 72 73 78 81 81 82 83 81 78 78 76 72 69 65 58 52 48 42
80 80 80 80 80 81 81 82 82 83 84 86 87 88 89 90 92 93 93 93 93 93 94 94 94 93 92 89 87 84 81 76 71 67 66 65 64 65 67 68 70 72 74 75 75 75 78 81 81 81 83 83 80 77 77 73 68 65 62 56 51 46 40
81 81 81 81 81 82 82 83 84 85 86 87 88 89 91 93 93 94 94 94 94 95 95 95 94 93 92 89 85 82 77 72 69 66 65 64 64 65 68 70 72 74 74 74 78 81 82 82 82 83 83 81 78 76 74 70 68 66 60 54 50 44 38
80 81 81 82 82 83 84 85 86 87 88 89 90 92 93 95 95 95 95 96 96 96 96 96 95 93 91 86 82 78 72 68 69 68 66 64 65 68 72 73 73 73 73 76 82 86 84 83 84 82 81 80 79 76 72 69 68 65 58 52 48 43 37
81 83 84 83 84 86 87 88 89 90 90 91 92 94 95 96 96 97 97 98 98 97 97 96 94 92 88 83 79 74 68 66 69 69 66 65 67 73 76 76 75 75 75 79 84 84 82 84 84 81 80 82 80 75 70 67 65 62 56 50 46 41 35
86 87 86 86 87 89 89 90 91 91 92 93 94 95 96 97 98 98 99 99 99 98 97 96 93 89 85 80 76 71 66 67 68 68 67 69 73 76 77 77 77 77 79 83 83 80 80 84 85 83 82 81 77 72 69 66 63 58 52 48 44 39 34
87 87 88 89 90 90 91 92 92 92 93 94 95 96 98 99 99 100 100 100 99 98 96 94 92 87 82 77 74 70 67 68 70 69 71 74 76 76 78 80 80 81 84 86 82 78 81 86 85 83 82 78 73 70 68 66 62 55 49 44 40 37 33
86 87 89 90 90 90 91 92 93 94 95 96 96 98 99 100 101 101 101 101 100 98 95 92 88 84 79 76 74 72 71 72 74 75 76 77 78 80 82 83 84 85 87 85 82 81 84 85 83 82 79 74 70 69 67 65 61 54 45 40 36 33 32
88 90 91 90 90 91 93 94 95 96 96 97 98 99 100 101 102 103 102 101 99 97 94 89 85 82 79 76 76 76 76 76 78 78 79 80 82 83 84 86 87 88 87 86 86 86 84 82 80 80 76 71 69 69 66 62 58 51 43 37 32 30 30
90 91 91 92 93 94 95 96 98 98 99 100 100 102 102 102 102 103 103 101 97 93 90 86 83 81 80 79 79 79 79 80 81 82 82 82 82 83 86 89 90 88 88 88 88 84 82 80 78 75 72 70 70 68 64 58 53 46 40 34 30 28 28
92 94 94 95 96 97 98 99 100 100 102 102 103 103 103 103 102 102 100 97 94 90 87 85 83 83 82 82 82 82 81 82 84 86 85 84 85 87 88 88 87 86 87 88 85 81 79 78 74 71 70 70 69 65 60 54 48 43 37 32 29 26 27
96 97 98 98 98 99 100 101 102 102 104 104 104 105 104 103 101 99 95 92 90 88 87 86 85 85 85 85 85 85 85 85 87 89 88 88 88 89 86 85 86 86 84 81 80 78 75 72 69 69 70 68 65 61 57 51 45 41 35 30 28 26 26
Wind_Direction
332 333 334 334 335 333 329 331 333 332 333 333 333 333 332 332 332 331 331 331 331 331 333 334 333 332 330 329 328 326 325 324 322 320 317 314 312 310 308 306 305 304 303 303 302 302 302 301 301 300 299 299 300 302 303 304 304 305 305 306 305 303 300
328 326 328 329 330 327 325 328 331 330 331 332 332 332 331 331 330 330 330 329 330 330 332 333 333 332 331 329 328 326 325 325 323 321 318 315 312 310 309 307 306 305 304 304 303 303 302 302 301 300 300 301 302 304 305 305 306 307 307 307 306 305 302
323 321 323 325 326 325 323 326 328 328 330 330 330 330 330 329 329 329 329 328 329 329 331 332 333 332 331 329 328 326 325 325 323 321 318 315 313 311 310 308 307 306 305 305 304 304 303 302 302 301 301 302 304 305 306 307 308 308 308 308 307 305 303
319 319 320 322 324 325 322 322 324 326 328 328 329 329 328 328 328 327 328 327 328 329 330 330 331 331 331 329 327 326 325 325 323 321 318 317 315 312 311 309 308 307 306 306 305 304 303 302 302 302 302 303 304 306 307 308 309 308 308 307 306 305 303
315 317 318 320 322 324 321 318 321 324 325 326 327 327 327 327 327 326 326 326 327 328 329 329 329 330 330 329 328 326 325 324 322 321 319 318 316 314 312 310 309 307 307 306 305 304 304 303 303 302 302 303 304 306 307 308 308 308 308 307 306 304 302
313 315 317 318 320 321 317 316 318 321 323 325 325 326 326 326 326 326 325 325 326 327 328 328 328 329 330 329 328 326 325 323 322 321 320 319 317 315 313 311 309 308 307 307 305 304 304 303 303 302 301 302 304 305 307 307 308 308 308 307 306 304 302
311 313 315 316 318 319 315 313 317 320 322 323 324 325 325 325 325 325 324 324 325 326 327 327 327 328 329 329 327 326 324 323 322 321 320 319 317 315 313 311 309 308 308 307 305 304 304 303 302 301 301 302 304 305 306 307 308 308 308 307 306 305 303
309 311 313 314 317 318 313 311 315 318 320 322 322 323 324 324 324 324 323 323 324 324 325 326 326 327 328 328 327 325 324 323 322 321 320 319 317 316 314 311 310 309 307 306 304 304 303 303 302 301 302 303 304 305 305 306 307 308 308 308 308 307 306
307 308 311 312 314 316 312 310 314 317 318 320 321 321 323 323 323 323 322 322 323 324 324 325 325 326 326 327 326 325 324 323 322 321 320 319 317 315 313 310 309 308 307 305 304 303 303 302 302 302 302 303 304 304 305 306 307 308 308 309 309 308 307
306 306 308 310 310 312 310 308 312 315 317 318 319 320 321 321 322 321 320 320 321 322 323 323 324 325 325 325 325 324 323 322 321 320 319 318 316 314 312 310 308 307 306 305 304 303 302 301 301 301 301 302 303 304 305 306 307 308 309 310 310 309 307
303 305 307 308 308 310 309 309 311 314 316 317 318 318 319 320 320 320 319 319 320 321 321 322 323 324 324 324 324 323 322 322 321 320 319 317 316 314 311 309 308 307 306 305 304 303 302 301 301 301 301 302 303 304 305 307 308 310 311 311 311 310 308
301 303 305 306 307 308 309 310 311 313 314 315 316 316 317 318 318 318 318 318 319 320 320 320 321 322 323 323 323 322 322 321 320 319 318 317 315 313 311 309 308 306 305 304 303 302 302 301 301 301 301 302 303 304 305 308 310 312 312 312 312 311 309
300 302 303 305 306 307 309 310 311 312 312 313 314 315 316 316 317 318 317 315 317 318 319 319 320 321 322 322 322 322 321 321 320 319 318 316 315 312 310 309 308 307 306 305 303 302 301 301 301 301 302 302 303 304 306 308 311 312 312 313 313 312 309
299 301 302 304 306 307 308 309 310 311 311 312 313 313 315 315 316 317 316 314 316 317 318 319 320 320 322 322 322 322 321 320 319 318 317 316 314 312 310 309 308 307 306 305 304 303 302 301 301 302 303 303 303 304 307 310 312 312 312 313 313 312 309
297 299 301 303 304 305 306 307 308 308 309 311 312 312 314 314 314 316 315 313 315 317 317 318 319 320 321 321 321 321 321 320 319 317 316 315 314 312 311 309 308 306 305 305 304 304 303 302 303 303 303 303 304 305 308 311 313 313 314 314 314 312 309
296 298 299 301 302 303 304 305 306 307 308 309 310 311 312 312 313 314 312 311 314 316 317 318 319 320 320 321 320 320 320 320 318 317 316 315 314 313 311 309 307 306 306 305 305 304 304 304 304 304 304 304 305 307 310 313 314 315 315 315 314 312 309
296 297 298 300 301 302 303 303 304 305 306 307 308 308 309 310 311 312 310 311 314 315 316 318 318 319 320 320 320 320 320 319 318 317 316 315 314 312 311 309 307 307 307 307 306 306 305 305 305 305 306 306 307 309 312 314 315 315 316 316 315 312 310
296 297 298 300 300 301 302 302 303 304 304 305 306 307 308 309 310 310 311 312 314 315 316 317 317 318 319 319 319 319 319 319 317 317 316 315 313 312 310 309 308 308 308 308 307 307 307 307 307 308 308 309 310 312 313 315 316 317 318 318 316 313 310
295 297 298 299 299 300 300 301 301 302 303 303 305 306 307 308 309 310 311 312 313 314 315 316 316 317 318 318 318 319 319 318 317 316 315 314 313 311 310 309 309 309 309 308 307 307 308 309 309 310 311 311 312 314 315 317 318 319 320 320 318 314 312
294 296 297 297 298 298 298 299 300 301 301 303 304 306 307 308 308 309 310 311 312 313 314 315 316 317 317 318 318 319 319 318 316 315 314 313 312 311 310 309 309 309 308 308 308 308 309 310 311 312 312 313 314 316 317 318 319 320 321 321 319 316 312
293 294 295 295 296 296 297 298 299 300 301 303 304 306 307 307 308 309 310 311 312 313 314 314 315 316 317 317 318 318 318 317 315 314 313 312 311 310 309 309 308 308 308 307 308 309 311 311 312 312 313 314 316 317 318 319 320 322 323 322 320 316 312
292 293 293 294 294 295 296 298 299 300 301 303 304 305 306 307 308 309 310 310 311 312 313 314 315 316 317 317 317 317 317 316 314 313 312 311 310 309 309 308 307 307 307 308 309 311 311 312 312 313 314 315 318 319 320 321 322 323 323 323 320 316 311
291 292 292 293 294 294 296 297 298 299 301 302 303 304 305 306 307 308 309 309 310 312 312 314 315 316 316 316 316 316 316 315 313 312 311 310 309 308 308 307 307 307 308 309 310 311 312 312 312 314 316 317 319 320 321 322 322 323 324 323 321 316 311
290 290 291 292 293 294 295 296 297 299 300 301 302 303 304 305 306 307 307 308 310 311 312 313 314 314 314 315 315 315 315 314 313 311 310 308 307 307 307 307 306 307 308 309 310 312 312 312 313 315 318 319 320 321 322 322 322 323 323 323 320 316 310
288 289 290 291 292 293 294 296 297 298 299 300 301 302 303 304 305 305 306 308 309 310 311 313 313 313 314 314 314 314 314 313 312 310 308 307 306 306 306 306 306 307 308 309 311 312 311 312 315 317 319 320 321 321 322 322 322 323 323 322 318 314 308
287 288 289 290 291 292 294 295 296 297 298 299 300 301 302 303 303 304 306 307 308 310 311 311 312 312 313 313 313 313 312 311 310 308 306 305 305 305 305 306 306 308 309 310 311 311 312 313 316 318 319 320 321 321 321 322 322 322 322 319 314 311 306
287 288 289 290 291 292 293 294 295 296 297 298 299 300 301 302 302 304 305 307 308 309 309 310 310 311 312 312 312 311 310 309 308 306 305 303 303 304 304 305 307 308 309 310 310 311 313 314 316 317 318 320 320 319 320 321 321 320 318 315 310 307 303
286 287 288 290 291 291 292 293 294 295 296 297 298 299 300 301 301 303 304 306 306 307 308 308 309 310 310 311 311 310 309 308 307 305 303 303 303 304 304 306 307 308 310 310 310 311 314 315 316 317 319 319 319 319 320 320 318 317 317 313 307 303 298
286 287 288 289 290 291 291 292 293 294 295 296 297 298 299 300 301 302 304 304 305 306 306 307 309 309 310 310 310 308 308 307 306 304 303 303 303 303 304 306 307 308 310 310 310 311 313 315 315 316 318 318 318 318 319 317 315 316 316 311 305 300 294
286 287 288 288 289 289 290 291 292 293 295 296 296 297 298 299 301 302 303 303 304 305 306 307 308 308 309 309 308 307 306 304 304 304 304 303 303 303 304 306 307 307 309 311 311 311 313 315 315 315 316 316 316 317 316 314 314 315 314 308 302 299 291
286 287 287 287 288 289 290 291 292 293 295 295 296 297 298 299 300 301 301 302 303 304 305 306 307 307 308 307 305 305 303 300 301 303 302 302 304 304 305 306 306 306 308 311 311 310 311 314 314 314 314 315 315 314 314 313 313 313 310 306 301 295 287
285 286 285 286 288 289 290 291 292 293 294 295 296 297 298 299 299 300 301 302 303 304 305 305 306 306 305 304 303 303 301 298 299 301 300 302 303 304 304 304 305 306 308 310 310 309 309 311 312 311 312 312 312 312 311 311 311 310 307 304 298 290 281
284 284 285 286 287 288 289 291 292 293 294 295 296 297 297 298 299 299 300 302 303 304 304 304 304 304 303 302 301 301 300 299 299 300 300 301 303 303 302 303 304 306 307 308 308 307 307 308 308 309 310 310 310 309 309 310 310 309 305 300 293 284 273
281 282 284 286 287 288 289 290 291 292 293 294 295 296 296 297 298 299 300 301 302 303 303 303 303 302 302 301 301 300 300 300 300 300 301 301 302 302 302 303 304 305 306 306 306 305 305 306 307 308 309 309 308 308 309 309 309 308 304 297 288 278 267
281 282 284 285 286 288 289 289 290 292 293 293 294 295 295 296 297 298 299 300 301 301 301 301 301 300 300 300 300 300 300 300 300 300 300 301 301 301 302 302 303 304 304 304 304 304 304 306 307 307 307 307 307 308 309 308 307 305 302 295 284 272 261
282 283 284 285 286 288 288 289 290 291 292 293 293 294 295 296 297 298 299 299 300 300 299 299 299 299 299 299 300 300 300 300 300 300 300 300 301 301 301 301 302 302 303 303 304 304 304 305 306 306 305 306 307 307 308 307 305 302 299 292 281 268 256
282 282 284 285 286 287 288 289 290 291 292 292 293 294 294 295 296 297 298 298 298 298 298 299 299 299 299 299 300 300 300 300 300 300 300 300 299 300 300 300 300 301 302 303 303 304 304 304 304 304 304 305 306 306 306 305 303 300 297 289 278 265 251
281 282 284 285 286 286 287 289 290 291 291 292 293 293 294 295 296 297 297 297 297 297 297 298 298 298 299 299 300 300 300 299 299 299 299 299 299 299 299 299 300 301 301 302 302 302 302 302 303 303 304 305 305 304 304 304 302 299 296 287 274 262 250
Height
10960 10958 10957 10954 10950 10946 10946 10947 10945 10943 10940 10938 10935 10932 10929 10927 10924 10922 10920 10917 10914 10912 10910 10907 10905 10902 10899 10896 10893 10890 10887 10883 10880 10877 10873 10870 10867 10864 10861 10858 10856 10853 10851 10849 10847 10845 10844 10842 10840 10837 10835 10834 10832 10831 10829 10827 10825 10823 10821 10820 10819 10818 10816
10959 10957 10957 10956 10952 10947 10945 10944 10943 10941 10938 10935 10932 10930 10927 10924 10921 10919 10916 10914 10911 10908 10906 10903 10901 10898 10895 10892 10889 10885 10882 10879 10875 10872 10869 10865 10862 10858 10856 10853 10850 10847 10845 10843 10841 10839 10837 10835 10833 10830 10828 10826 10824 10822 10820 10819 10817 10814 10813 10811 10810 10809 10807
10958 10957 10956 10954 10952 10948 10944 10943 10941 10938 10935 10932 10930 10927 10924 10921 10918 10915 10913 10910 10907 10904 10902 10899 10896 10894 10891 10888 10884 10881 10877 10874 10871 10867 10864 10860 10857 10853 10850 10847 10844 10841 10839 10837 10835 10832 10830 10828 10826 10824 10821 10819 10817 10815 10812 10810 10808 10806 10804 10802 10800 10799 10798
10956 10955 10953 10951 10949 10946 10944 10942 10940 10936 10932 10929 10927 10924 10921 10918 10915 10912 10909 10907 10904 10901 10898 10895 10892 10890 10887 10884 10880 10876 10873 10869 10866 10863 10859 10855 10851 10848 10844 10841 10838 10835 10832 10830 10828 10825 10823 10821 10819 10817 10814 10811 10809 10807 10804 10801 10799 10797 10796 10794 10792 10790 10788
10952 10951 10949 10948 10946 10944 10941 10939 10937 10933 10929 10926 10923 10920 10917 10914 10911 10908 10905 10903 10900 10897 10894 10891 10888 10886 10883 10879 10875 10871 10868 10864 10861 10857 10853 10850 10846 10842 10839 10835 10832 10828 10825 10823 10821 10818 10816 10813 10812 10810 10807 10804 10801 10799 10796 10793 10790 10789 10787 10785 10783 10781 10779
10947 10946 10945 10944 10943 10941 10939 10937 10934 10930 10926 10922 10919 10916 10913 10910 10907 10904 10901 10898 10896 10893 10890 10886 10883 10880 10877 10874 10870 10866 10862 10859 10855 10852 10848 10844 10840 10836 10832 10829 10825 10822 10819 10816 10814 10811 10809 10806 10804 10802 10799 10797 10794 10791 10788 10785 10783 10780 10778 10776 10773 10771 10769
10942 10941 10941 10940 10938 10936 10934 10933 10929 10925 10922 10918 10914 10911 10909 10906 10902 10899 10896 10893 10891 10888 10885 10881 10877 10874 10873 10869 10865 10861 10858 10854 10850 10846 10842 10838 10834 10830 10826 10822 10818 10815 10812 10809 10806 10804 10802 10800 10797 10794 10791 10789 10786 10783 10780 10777 10775 10772 10768 10766 10763 10761 10758
10936 10935 10935 10935 10933 10931 10930 10928 10924 10920 10917 10913 10909 10906 10904 10901 10897 10894 10891 10888 10885 10883 10880 10877 10872 10868 10866 10864 10860 10856 10852 10848 10844 10840 10836 10832 10828 10824 10820 10816 10812 10808 10806 10803 10800 10797 10795 10793 10790 10787 10784 10781 10778 10775 10771 10769 10767 10763 10759 10756 10752 10750 10747
10931 10930 10930 10930 10928 10927 10926 10923 10919 10915 10911 10908 10904 10901 10898 10895 10892 10889 10886 10883 10880 10877 10874 10872 10868 10863 10859 10857 10854 10850 10846 10842 10838 10834 10830 10826 10822 10818 10814 10810 10806 10803 10799 10795 10793 10791 10788 10785 10783 10780 10777 10773 10770 10767 10763 10761 10759 10756 10752 10748 10743 10739 10736
10925 10924 10924 10924 10924 10924 10923 10919 10914 10910 10906 10902 10899 10895 10893 10890 10887 10884 10880 10877 10875 10873 10869 10865 10863 10860 10856 10851 10848 10845 10840 10837 10832 10828 10825 10821 10816 10812 10808 10804 10800 10797 10793 10788 10785 10783 10781 10778 10776 10774 10770 10766 10763 10759 10755 10751 10750 10747 10743 10740 10736 10731 10727
10919 10918 10917 10917 10916 10917 10916 10912 10908 10904 10900 10896 10893 10890 10888 10885 10882 10879 10875 10871 10869 10867 10864 10860 10856 10854 10851 10847 10843 10839 10835 10831 10827 10823 10819 10814 10810 10806 10801 10797 10794 10791 10787 10783 10779 10775 10773 10771 10769 10767 10763 10759 10755 10752 10747 10742 10739 10736 10733 10730 10727 10722 10717
10914 10912 10911 10910 10909 10908 10907 10904 10901 10898 10894 10891 10888 10885 10882 10880 10877 10873 10869 10865 10862 10860 10858 10855 10852 10848 10845 10842 10838 10833 10829 10824 10820 10816 10812 10808 10804 10799 10794 10790 10787 10784 10781 10777 10773 10769 10765 10762 10760 10758 10755 10752 10748 10744 10741 10736 10731 10727 10722 10719 10717 10712 10707
10909 10907 10905 10904 10902 10900 10899 10896 10893 10891 10889 10885 10882 10879 10876 10874 10871 10868 10865 10861 10858 10855 10852 10849 10846 10842 10838 10834 10831 10826 10822 10818 10813 10809 10805 10801 10797 10792 10787 10783 10779 10776 10773 10770 10766 10763 10759 10755 10752 10749 10747 10743 10740 10736 10733 10730 10725 10719 10713 10709 10706 10702 10696
10904 10902 10900 10898 10896 10893 10891 10889 10886 10884 10882 10879 10876 10873 10870 10867 10864 10861 10859 10856 10852 10849 10846 10842 10838 10835 10831 10826 10822 10819 10815 10811 10807 10802 10798 10794 10790 10785 10781 10776 10772 10769 10765 10762 10759 10755 10752 10748 10744 10741 10738 10735 10732 10729 10725 10721 10716 10710 10705 10701 10697 10691 10686
10899 10897 10895 10893 10890 10888 10885 10883 10880 10877 10875 10872 10869 10866 10863 10860 10857 10854 10851 10848 10845 10842 10839 10836 10831 10827 10823 10819 10815 10811 10807 10803 10799 10795 10791 10787 10782 10778 10774 10769 10765 10762 10758 10755 10752 10748 10744 10741 10737 10734 10730 10727 10724 10720 10717 10713 10707 10700 10695 10690 10685 10680 10675
10893 10891 10890 10888 10885 10883 10880 10878 10875 10871 10869 10866 10863 10860 10858 10855 10852 10850 10847 10842 10839 10836 10833 10829 10824 10820 10816 10812 10807 10803 10800 10796 10791 10787 10783 10779 10775 10770 10766 10762 10758 10754 10751 10748 10745 10741 10737 10734 10730 10727 10723 10719 10715 10712 10709 10705 10699 10692 10687 10681 10674 10669 10665
10886 10884 10883 10881 10878 10876 10874 10871 10868 10865 10863 10860 10858 10855 10853 10850 10847 10845 10842 10837 10832 10828 10825 10821 10817 10813 10809 10804 10800 10796 10792 10788 10784 10779 10775 10771 10767 10763 10759 10754 10750 10747 10744 10740 10736 10733 10730 10726 10723 10719 10715 10711 10707 10704 10701 10696 10690 10684 10679 10672 10665 10659 10655
10878 10877 10875 10873 10870 10868 10866 10864 10861 10859 10856 10854 10852 10849 10847 10843 10840 10837 10833 10829 10825 10821 10818 10814 10810 10806 10802 10797 10792 10789 10785 10781 10776 10771 10767 10763 10759 10755 10751 10747 10743 10740 10736 10732 10728 10725 10722 10718 10714 10710 10707 10703 10699 10695 10691 10686 10681 10675 10669 10663 10655 10649 10644
10871 10869 10867 10865 10862 10860 10858 10856 10854 10851 10849 10847 10844 10842 10839 10836 10832 10828 10825 10822 10818 10815 10812 10808 10804 10800 10796 10790 10786 10782 10778 10773 10768 10763 10759 10755 10752 10747 10744 10739 10736 10733 10729 10725 10721 10718 10715 10711 10707 10702 10698 10694 10690 10686 10681 10676 10670 10665 10660 10653 10646 10640 10635
10864 10862 10860 10858 10855 10853 10851 10849 10847 10844 10841 10839 10836 10833 10831 10827 10824 10821 10818 10814 10810 10807 10805 10801 10797 10793 10789 10783 10779 10775 10771 10766 10761 10756 10751 10748 10744 10739 10736 10732 10729 10725 10722 10718 10715 10711 10707 10703 10699 10695 10691 10687 10682 10677 10672 10666 10661 10656 10650 10644 10638 10632 10628
10857 10855 10853 10851 10848 10846 10843 10841 10839 10836 10833 10830 10827 10825 10822 10818 10815 10812 10809 10806 10802 10799 10796 10793 10789 10786 10781 10776 10771 10768 10764 10760 10754 10749 10744 10740 10736 10732 10728 10725 10721 10718 10715 10711 10708 10704 10700 10696 10692 10688 10684 10679 10674 10668 10662 10657 10652 10647 10641 10635 10630 10625 10621
10849 10847 10845 10844 10841 10839 10836 10833 10830 10827 10824 10821 10818 10816 10812 10809 10806 10803 10799 10796 10793 10790 10787 10784 10781 10778 10773 10768 10764 10761 10757 10753 10747 10742 10736 10732 10728 10724 10721 10717 10714 10710 10707 10703 10700 10697 10693 10689 10685 10681 10677 10672 10667 10661 10653 10646 10641 10638 10633 10628 10622 10618 10614
10842 10839 10837 10835 10833 10831 10828 10825 10823 10820 10817 10814 10811 10807 10804 10800 10797 10794 10791 10788 10785 10782 10778 10776 10773 10769 10765 10760 10756 10753 10750 10746 10740 10734 10729 10725 10721 10717 10713 10709 10706 10702 10699 10696 10693 10689 10685 10681 10678 10674 10670 10664 10659 10653 10647 10638 10631 10627 10624 10620 10615 10611 10608
10835 10832 10829 10827 10825 10823 10820 10817 10815 10812 10809 10807 10803 10800 10796 10793 10790 10786 10782 10779 10777 10774 10770 10768 10765 10761 10757 10752 10748 10744 10742 10738 10733 10728 10722 10718 10714 10710 10706 10701 10697 10694 10691 10688 10685 10682 10678 10674 10670 10666 10662 10656 10650 10644 10640 10633 10624 10619 10616 10612 10608 10605 10603
10827 10824 10821 10820 10817 10814 10812 10810 10807 10804 10801 10798 10795 10792 10788 10785 10782 10779 10775 10771 10768 10765 10762 10760 10757 10753 10749 10745 10739 10735 10733 10730 10726 10721 10715 10711 10707 10703 10699 10694 10690 10686 10683 10680 10677 10674 10670 10666 10663 10658 10654 10649 10642 10636 10631 10626 10618 10612 10608 10605 10601 10599 10597
10819 10816 10814 10812 10810 10807 10805 10802 10799 10796 10794 10790 10787 10784 10780 10777 10774 10771 10768 10763 10759 10756 10754 10752 10749 10744 10741 10737 10732 10727 10724 10721 10718 10714 10708 10704 10700 10697 10692 10687 10683 10679 10675 10672 10669 10666 10663 10659 10655 10651 10646 10642 10637 10630 10624 10620 10613 10605 10601 10599 10596 10594 10592
10810 10808 10806 10804 10802 10799 10797 10794 10791 10789 10786 10782 10779 10775 10772 10769 10765 10762 10760 10756 10752 10748 10745 10743 10740 10737 10734 10730 10726 10721 10717 10713 10710 10707 10702 10697 10693 10690 10686 10681 10676 10672 10668 10664 10661 10658 10655 10651 10647 10644 10639 10635 10631 10624 10617 10613 10608 10602 10597 10594 10592 10589 10587
10801 10799 10797 10795 10793 10790 10788 10786 10783 10781 10778 10775 10771 10767 10763 10760 10757 10754 10752 10748 10745 10741 10738 10734 10732 10729 10725 10722 10718 10713 10709 10706 10703 10700 10695 10690 10686 10683 10678 10674 10670 10666 10661 10656 10652 10650 10647 10643 10639 10636 10631 10626 10623 10618 10611 10606 10602 10598 10594 10590 10586 10584 10582
10792 10791 10788 10786 10783 10781 10779 10777 10774 10772 10769 10767 10763 10759 10754 10751 10748 10745 10743 10739 10736 10734 10730 10726 10724 10720 10716 10713 10709 10703 10699 10697 10695 10692 10688 10683 10680 10676 10671 10668 10663 10659 10655 10650 10645 10641 10640 10636 10632 10628 10624 10619 10615 10611 10606 10600 10594 10591 10590 10585 10581 10579 10577
10782 10781 10779 10777 10774 10772 10770 10768 10766 10763 10761 10758 10755 10750 10745 10742 10739 10736 10733 10729 10727 10725 10721 10717 10714 10710 10707 10704 10700 10695 10691 10688 10685 10682 10680 10677 10673 10668 10664 10661 10656 10652 10650 10646 10638 10633 10630 10628 10624 10621 10617 10613 10609 10605 10600 10595 10588 10583 10582 10580 10576 10573 10571
10772 10770 10768 10767 10764 10761 10760 10758 10756 10754 10751 10747 10744 10740 10736 10732 10729 10726 10723 10720 10717 10715 10711 10708 10705 10702 10699 10696 10692 10688 10685 10682 10678 10675 10672 10670 10667 10661 10656 10653 10649 10645 10643 10640 10633 10627 10623 10620 10617 10614 10610 10606 10602 10598 10594 10590 10585 10579 10574 10572 10570 10568 10566
10762 10759 10757 10757 10754 10751 10749 10748 10745 10743 10740 10737 10734 10730 10725 10722 10719 10715 10712 10710 10707 10704 10701 10697 10695 10693 10690 10687 10684 10682 10679 10675 10671 10668 10665 10663 10659 10654 10649 10645 10643 10639 10635 10633 10628 10623 10618 10613 10610 10608 10605 10601 10596 10592 10588 10584 10581 10576 10570 10566 10564 10563 10561
10751 10748 10746 10745 10744 10741 10739 10737 10734 10732 10730 10727 10724 10719 10714 10711 10708 10704 10701 10699 10696 10693 10690 10687 10683 10682 10680 10677 10675 10674 10672 10668 10664 10662 10659 10655 10651 10647 10642 10637 10634 10631 10627 10624 10621 10617 10612 10608 10603 10600 10598 10594 10589 10585 10581 10576 10573 10570 10566 10562 10559 10557 10556
10741 10739 10737 10736 10734 10732 10729 10726 10724 10722 10720 10717 10713 10709 10704 10700 10697 10693 10691 10689 10686 10682 10679 10678 10674 10671 10670 10668 10665 10663 10662 10660 10656 10653 10650 10647 10643 10640 10635 10629 10625 10622 10618 10615 10612 10608 10604 10600 10595 10590 10588 10585 10580 10576 10573 10568 10564 10562 10559 10557 10554 10552 10551
10731 10730 10729 10728 10725 10723 10720 10717 10714 10712 10711 10708 10704 10700 10696 10691 10687 10682 10680 10679 10677 10672 10668 10667 10665 10662 10660 10659 10657 10655 10653 10650 10647 10643 10641 10638 10633 10629 10624 10619 10615 10612 10608 10605 10601 10597 10593 10590 10585 10580 10577 10574 10570 10566 10563 10560 10556 10554 10552 10550 10549 10548 10547
10722 10720 10720 10719 10716 10714 10710 10707 10704 10702 10699 10697 10694 10689 10685 10682 10678 10674 10669 10667 10666 10662 10658 10656 10655 10653 10650 10648 10647 10646 10644 10641 10636 10633 10631 10629 10624 10619 10614 10609 10604 10600 10597 10593 10590 10585 10581 10578 10574 10570 10566 10563 10560 10556 10554 10552 10549 10547 10546 10544 10543 10543 10542
10712 10710 10710 10709 10706 10704 10700 10697 10694 10691 10687 10684 10681 10677 10673 10671 10668 10665 10661 10656 10653 10650 10648 10646 10644 10642 10640 10638 10636 10636 10634 10631 10625 10622 10620 10619 10615 10611 10606 10600 10595 10591 10586 10581 10577 10574 10570 10566 10563 10560 10556 10553 10551 10547 10545 10544 10542 10540 10540 10539 10538 10538 10538
10702 10700 10700 10699 10695 10693 10689 10686 10683 10680 10676 10672 10667 10663 10661 10659 10658 10655 10651 10647 10643 10639 10637 10636 10634 10631 10629 10628 10625 10625 10623 10620 10615 10612 10609 10606 10603 10600 10595 10590 10585 10581 10576 10570 10565 10562 10560 10557 10553 10550 10546 10544 10542 10539 10537 10536 10535 10534 10534 10533 10532 10532 10533